EHI
16 15 13 12 14 16 19 22 25 30 33 34 34 34 30 23 18 16 14 13 13 13 14 15 15 16 16 15 13 12 9 6 5 4 2 1 0 1 0 0 0 0 1
19 17 14 12 13 14 16 21 27 30 32 32 31 31 29 23 18 15 13 12 13 14 15 15 14 15 16 16 15 13 9 7 6 6 4 1 0 1 0 0 0 1 2
18 17 15 13 12 12 14 19 25 29 30 30 29 28 26 22 18 15 14 13 15 16 16 15 13 14 16 16 16 15 12 10 8 7 5 2 1 1 0 0 0 1 2
12 13 13 11 10 11 14 17 21 24 26 27 28 27 24 21 18 18 16 16 16 15 13 13 13 14 15 15 16 16 15 12 10 8 5 3 2 1 0 0 0 0 1
8 10 10 8 8 9 11 15 19 20 22 22 25 27 25 22 20 19 19 17 15 13 11 10 11 12 14 15 17 17 15 12 10 8 6 3 2 1 0 0 0 0 0
6 8 9 9 9 9 11 15 19 21 20 18 20 24 25 25 23 20 18 17 15 12 10 8 7 7 10 14 16 16 13 11 10 8 6 4 2 1 1 0 0 0 0
6 9 10 10 10 11 12 15 19 21 20 17 17 20 23 24 23 20 17 15 13 11 8 6 5 5 7 10 12 11 10 8 8 6 5 4 2 1 1 1 0 0 0
7 8 9 9 9 10 11 14 18 20 19 18 17 19 20 21 21 19 15 13 12 9 6 4 4 4 4 5 6 6 6 5 4 3 2 1 1 1 1 1 1 0 0
7 7 6 5 6 7 9 11 14 15 17 17 18 18 18 17 18 16 13 10 9 7 5 3 2 1 1 1 2 3 4 3 3 1 0 0 0 0 1 2 2 1 0
6 5 4 4 4 5 7 9 10 11 12 14 16 16 15 14 14 12 9 6 4 3 2 1 0 1 1 1 1 3 3 3 3 2 1 0 0 0 2 2 2 1 1
4 4 4 5 5 6 7 8 8 9 9 10 12 13 12 11 9 7 5 4 2 1 0 0 0 1 2 2 2 3 3 2 2 2 1 0 0 1 2 2 1 1 0
4 4 4 5 6 6 7 7 8 8 9 9 9 10 10 9 7 5 4 4 3 1 0 0 0 1 1 1 1 2 2 1 1 1 0 0 1 2 2 1 0 0 0
3 3 2 3 4 6 5 5 7 8 8 9 8 8 9 8 6 5 5 5 4 1 0 0 0 0 0 0 0 1 1 0 0 0 0 0 1 2 3 2 1 1 1
2 1 1 2 3 4 4 3 4 6 7 9 8 7 7 7 7 6 6 5 3 1 0 0 0 0 0 0 0 0 0 0 0 0 0 0 1 2 3 3 2 2 2
1 1 1 2 2 3 2 1 2 3 5 8 8 6 5 6 6 6 5 4 1 0 0 0 0 0 0 0 0 0 0 0 0 0 1 1 0 1 2 2 2 3 3
0 1 1 1 1 1 1 1 3 4 5 6 6 5 4 4 5 5 4 2 1 0 0 0 0 0 0 0 0 0 0 0 0 1 2 2 1 0 0 0 1 1 2
1 1 2 1 1 1 1 1 3 5 4 5 5 4 3 3 4 4 3 2 0 0 0 0 0 0 0 0 0 0 0 0 0 2 3 3 1 1 1 1 0 0 1
2 2 3 3 3 2 1 1 3 4 4 4 5 4 3 3 3 3 3 2 1 0 0 0 0 0 0 0 0 0 0 0 0 1 2 3 2 2 2 2 1 1 1
4 4 4 3 3 2 1 1 2 2 2 2 3 4 4 3 3 3 3 2 1 0 0 0 0 0 0 0 0 0 0 1 0 0 1 2 2 1 1 2 2 2 2
5 5 4 3 2 1 0 0 1 1 0 1 2 3 3 3 3 3 2 1 0 0 0 0 0 0 0 0 0 0 0 0 0 0 0 1 1 0 1 2 2 2 2
6 5 4 2 1 0 0 0 0 0 0 1 2 2 2 3 3 2 1 0 0 0 0 0 0 0 0 0 0 0 0 0 0 0 0 0 0 0 0 1 1 1 2
6 5 3 1 0 0 0 0 0 1 1 1 1 1 1 1 1 1 0 0 0 0 0 0 0 0 0 0 0 0 0 0 0 0 0 0 0 0 0 0 0 0 1
4 4 2 1 0 0 0 0 0 1 2 2 1 0 0 0 0 0 0 0 0 0 0 0 0 0 0 0 0 0 0 0 0 0 0 0 0 0 0 0 0 0 0
3 2 1 0 0 0 0 0 0 1 2 1 0 0 0 0 0 0 0 0 0 0 0 0 0 0 0 0 0 0 0 0 0 0 0 0 0 0 0 0 0 0 0
2 1 0 0 0 0 0 0 0 0 0 0 0 0 0 0 0 0 0 0 0 0 0 0 0 0 0 0 0 0 0 0 0 0 0 0 0 0 0 0 0 0 0
1 0 0 0 0 0 0 0 0 0 0 0 0 0 0 0 0 0 0 0 0 0 0 0 0 0 0 0 0 0 0 0 0 0 0 0 0 0 0 0 0 0 0
Wind_Speed
2 3 4 4 5 5 4 5 5 5 5 4 4 4 3 3 3 3 3 4 4 4 5 4 3 4 4 4 5 5 5 5 4 6 5 6 6 6 5 5 5 5 6
3 3 3 3 4 4 4 4 5 5 5 4 3 2 2 2 2 2 3 4 4 5 5 4 4 4 4 5 5 5 5 5 4 5 5 5 5 5 5 4 5 5 5
2 3 3 2 2 2 3 3 4 4 4 4 3 2 2 2 2 3 3 3 4 5 5 5 5 4 5 4 5 5 6 6 5 4 5 5 5 4 4 5 5 5 5
2 2 3 3 2 3 3 3 3 4 4 5 4 4 3 3 3 2 2 3 4 5 4 5 5 5 5 5 6 5 6 7 6 4 5 6 6 6 5 4 5 6 6
1 2 2 2 2 2 3 3 3 3 3 4 4 5 4 3 2 2 2 3 3 4 5 5 4 5 5 5 5 5 6 6 6 5 5 6 5 7 7 7 5 5 5
0 1 2 2 1 1 1 2 2 2 3 3 4 4 3 3 2 3 3 3 2 3 4 4 4 5 4 4 4 5 6 5 6 6 6 6 6 6 6 8 8 7 5
1 1 2 2 1 1 1 1 2 2 3 3 3 3 3 3 3 3 3 3 2 2 2 3 4 4 4 4 4 4 5 5 6 6 5 6 6 6 6 8 8 8 6
2 1 2 2 1 1 0 1 1 2 2 2 2 2 3 2 2 2 2 2 2 2 2 3 3 4 4 4 4 4 4 4 5 6 6 5 6 5 5 6 7 8 7
3 2 2 1 1 1 1 0 1 1 2 2 2 2 2 1 1 2 2 1 2 2 2 3 3 3 4 4 4 4 4 4 5 5 5 5 5 5 5 5 6 7 8
4 3 2 1 1 1 1 2 2 2 2 1 1 1 1 1 1 1 1 1 2 2 3 3 3 3 4 4 4 4 3 4 5 4 5 6 6 5 5 6 6 6 7
4 3 2 2 2 2 2 1 2 1 1 1 1 1 1 1 1 1 1 1 1 2 3 3 3 4 4 4 4 4 4 5 5 5 6 6 7 6 6 6 6 6 6
4 4 3 3 2 2 2 1 1 1 1 1 0 1 0 1 1 1 1 1 2 3 3 3 3 4 4 4 4 5 4 5 5 6 6 7 6 6 6 5 6 6 7
4 4 4 3 3 3 2 1 1 1 1 1 0 1 0 0 1 1 2 2 2 2 3 3 3 4 4 4 4 4 5 5 6 6 7 7 7 7 6 6 6 6 6
3 3 3 3 3 3 2 2 1 1 1 1 1 0 0 1 1 2 2 2 2 2 3 3 4 4 4 4 4 5 5 6 6 6 6 6 6 6 7 6 7 7 7
3 2 2 3 3 3 2 2 1 1 1 1 2 1 1 1 2 2 2 2 2 3 3 3 3 3 3 3 5 6 6 6 6 6 6 5 4 5 6 6 7 7 6
2 2 2 2 2 2 3 2 1 1 1 1 2 2 1 2 2 2 2 2 2 3 3 3 3 3 3 3 4 6 6 6 6 5 5 5 4 3 4 6 7 8 8
3 2 2 2 2 2 2 2 1 0 1 1 2 2 2 2 2 2 2 2 2 3 3 3 3 3 3 3 4 6 6 6 5 5 5 5 5 5 6 5 6 6 6
3 2 2 2 2 2 1 1 1 0 1 1 2 3 3 2 2 2 2 2 2 2 3 3 3 3 3 3 4 6 5 4 4 4 4 5 6 6 7 8 7 7 6
3 2 2 1 1 1 1 1 1 1 1 1 2 3 3 3 2 2 2 2 2 2 2 3 3 3 3 4 4 7 5 3 3 3 3 4 5 7 8 8 7 8 7
3 2 1 1 0 0 1 1 1 1 1 2 3 3 3 3 2 2 2 2 2 2 2 2 3 3 4 4 5 7 4 4 4 3 2 4 5 6 7 7 7 8 8
3 2 1 1 0 0 0 1 1 1 2 2 2 2 2 2 2 2 2 2 2 2 2 3 2 2 3 4 5 6 4 5 5 5 4 4 4 5 6 7 6 7 9
2 1 1 1 0 0 1 1 1 1 1 1 2 2 2 2 2 2 2 2 2 2 2 2 3 2 3 4 4 3 4 6 5 5 5 5 5 6 7 5 5 8 8
3 2 2 1 1 1 1 1 1 0 0 0 1 2 2 2 2 3 3 2 2 3 3 3 3 4 4 3 2 0 1 3 4 4 4 5 5 7 4 3 5 6 5
3 2 2 2 1 1 1 1 0 1 1 1 1 1 1 2 3 2 2 3 3 3 4 4 4 4 4 5 5 4 3 2 3 4 3 4 5 4 4 3 3 4 5
3 2 2 2 2 1 1 1 1 1 1 1 1 0 1 2 2 3 3 3 4 4 4 4 5 5 5 6 6 6 6 6 6 7 5 5 5 5 5 5 6 6 6
3 2 2 2 2 1 1 1 1 2 1 1 1 0 1 1 1 1 2 5 3 4 4 4 4 4 5 4 5 5 5 6 7 6 5 5 6 7 6 6 6 6 6
Wind_Direction
145 145 148 158 154 166 188 187 195 184 183 183 191 192 191 195 206 215 213 223 235 237 241 253 243 252 256 265 269 268 259 260 269 272 269 255 245 248 252 255 265 262 262
142 147 155 161 167 174 193 192 189 183 191 186 195 205 206 216 213 220 211 227 235 242 240 246 250 248 254 249 254 258 270 267 258 275 282 272 240 224 240 246 251 263 265
168 176 174 173 175 181 196 193 192 193 193 185 183 174 186 214 208 217 220 228 237 241 247 244 252 253 254 252 253 254 260 269 263 262 274 284 288 293 236 244 253 257 259
173 179 186 184 192 201 199 198 197 196 190 191 195 201 211 222 222 227 230 237 239 241 239 247 251 256 258 258 255 257 263 265 269 259 257 271 297 287 283 252 248 252 255
181 179 186 185 195 200 197 190 188 188 191 201 201 209 222 227 222 220 222 239 237 241 246 252 260 261 262 265 271 268 263 266 272 277 272 266 264 260 274 282 280 263 255
78 136 143 144 150 161 162 170 179 185 190 201 204 212 217 220 217 218 223 233 234 245 252 258 265 266 273 272 269 267 260 266 275 278 278 275 273 269 270 276 279 280 275
58 97 132 134 126 106 95 182 188 193 189 189 192 202 212 219 216 228 224 241 251 260 270 280 276 282 283 279 275 271 274 271 274 274 277 278 277 280 279 279 282 283 282
39 76 108 118 120 129 150 227 209 194 190 183 175 193 213 224 215 231 260 255 273 288 292 280 285 288 286 283 285 283 281 279 276 278 280 277 276 275 272 277 285 285 283
27 41 74 91 102 80 37 270 162 161 167 161 164 183 197 215 226 234 254 279 298 295 294 291 288 289 287 286 283 283 283 281 274 277 279 279 280 276 276 273 272 276 283
26 42 69 89 85 77 70 68 102 114 123 154 183 168 168 181 199 233 263 294 303 305 290 283 281 286 291 286 281 285 289 285 281 283 287 288 287 284 274 272 271 269 273
24 42 68 73 88 87 73 68 88 95 104 127 145 152 173 188 211 221 253 296 305 290 282 284 284 287 290 288 286 293 293 288 293 295 293 290 293 290 284 276 276 273 271
31 42 60 65 69 69 59 49 55 65 67 75 87 134 168 208 241 262 294 294 295 293 298 298 292 290 291 288 288 292 294 295 297 298 296 294 292 286 282 284 284 283 279
38 45 52 54 48 47 45 38 51 44 29 34 42 111 169 241 275 294 294 297 302 306 309 304 292 292 294 293 291 294 296 298 300 300 297 295 294 291 292 290 289 287 282
45 44 47 46 38 36 31 24 22 35 26 15 345 26 273 271 273 286 298 304 306 307 307 301 299 298 298 302 304 306 304 301 302 299 295 295 297 296 299 293 291 292 291
38 34 33 38 35 32 22 19 21 36 11 352 342 331 306 291 291 303 312 311 309 305 303 299 302 303 301 328 327 314 306 302 302 302 303 300 299 301 298 302 307 301 294
0 4 11 26 23 17 11 14 22 36 6 338 326 326 335 333 326 324 323 318 316 312 309 311 312 314 332 8 329 309 303 301 303 309 312 303 286 307 283 283 287 290 292
343 341 358 9 360 2 355 349 2 18 349 335 331 335 345 345 340 342 347 338 323 322 317 318 320 319 350 347 316 309 298 300 309 317 318 318 345 335 331 312 279 275 261
338 330 334 352 357 358 353 346 357 352 344 341 339 333 333 345 352 4 7 355 343 334 331 335 334 333 5 9 332 320 290 305 313 319 330 331 336 0 339 322 319 313 308
326 315 306 297 322 353 342 339 343 318 317 322 324 326 330 344 357 9 358 350 343 342 340 345 348 349 13 20 349 323 304 319 324 335 354 344 341 14 342 321 320 318 317
329 315 293 246 239 325 320 318 319 314 332 334 331 336 349 355 354 351 338 349 342 339 336 3 356 1 10 29 3 333 320 336 331 342 358 56 8 357 339 325 327 327 328
328 309 282 248 260 280 272 307 332 348 346 344 346 5 14 3 4 1 356 351 345 353 344 349 351 11 18 42 23 353 336 340 337 343 344 28 28 338 319 311 324 326 313
329 319 286 277 302 241 256 286 346 7 20 13 27 36 24 10 39 34 14 3 351 347 342 347 351 24 43 38 34 12 345 332 335 337 343 10 2 318 299 310 335 317 306
321 305 277 268 265 256 282 304 359 49 88 46 58 46 42 29 32 21 6 352 346 348 354 359 5 17 29 53 82 110 298 300 316 334 351 332 309 305 303 308 305 305 324
322 311 281 258 249 252 273 288 185 150 175 123 79 77 61 46 41 9 360 358 0 359 358 0 358 4 16 13 3 349 344 315 308 318 299 251 259 282 322 333 332 342 349
321 303 270 264 259 232 230 210 146 149 153 137 127 93 67 60 40 29 19 8 31 18 354 357 358 356 2 15 357 342 351 348 348 327 331 348 355 357 0 360 0 356 350
314 303 276 266 256 227 212 177 154 166 175 170 157 114 65 63 36 64 80 61 66 66 57 27 1 25 29 2 352 349 341 330 321 322 356 359 359 358 356 356 356 356 355